FENGYUN 1C DEB, 36199

Orbit data source: Space-Track

FENGYUN 1C DEB, 36199 is space debris in SSO originally from a launch on Mon, 10 May 1999 UTC launched from the Taiyaun Space Center, China (TSC). Fengyun 1C debris stems from the Chinese weather satellite Fengyun-1C, which was intentionally destroyed by a Chinese anti-satellite missile in 2007. This event dramatically increased the amount of space debris, with thousands of trackable fragments posing hazards to satellites and human spaceflight. The Fengyun 1C debris cloud has become a focal point in discussions about space sustainability and the need for international regulations to prevent the creation of new debris.

Loading next visibility...
Identifier
36199, 1999-025DTY
Orbit
SSO
Country
Flag of CNCN / PRC
Related business
Manufacturer
Unknown
Mission
Spacecraft
Bus & Motor
Unknown
Mass
Unknown
Launch date (UTC)
1999-05-10 (27 years ago)
Launch vehicle
Unknown
Launch site
Taiyaun Space Center, China (TSC)
Object type
Payload
Rocket body
Debris
Shape & HBR
Unknown shape, 0.1 m
Radar Cross Section
Small (<0.1 m²)

Expand to show TLE details & history
Last TLE update: 4 days ago

TLE from 4 days ago
0 FENGYUN 1C DEB
1 36199U 99025DTY 26251.99903913  .00000401  00000-0  16389-3 0  9997
2 36199  98.2768 265.0464 0091165 346.9370  12.9453 14.29994304688428
Epoch: 2026-09-08T23:58Z
TLE epoch observation values (Epoch: 2026-09-08T23:58:36.980Z)
Latitude
-0.00005°
Longitude
-82.66508°
Altitude
731.006 km
Speed
7.523 km/s
True Right ascension
17h 40m 11s
True Declination
0° 00' 00"
Sunlit
Object was in daylight at epoch
Visualization orbit readout
Latitude
Unknown
Longitude
Unknown
Altitude
Unknown
Speed
Unknown
Apparent Right ascension
Unknown
Apparent Declination
Unknown
Sunlit
N/A
Visualization observer readout
Local Sidereal Time
12:40:23
Azimuth
Unknown
Elevation
Unknown
Doppler factor
Unknown
Orbital elements
Apogee altitude
854.212 km
Perigee altitude
723.536 km
Semi-major axis
7,167.011 km
Eccentricity
0.00912
Inclination
98.2768°
RAAN
265.0464°
Arg. of periapsis
346.937°
True anomaly
13.18196°
Mean anomaly
12.9453°
Eccentric anomaly
13.06336°
Mean motion
3.57714 °/min
Orbital period
100.64 mins
BSTAR
0.00016389
Loading maneuver chart data...
Computing Atmospheric mass density...
Loading historical data...
Loading historical data...
Loading historical data...
Loading historical data...
Loading historical data...
Loading historical data...
Loading historical data...

Documentation

Showing up to 5 results
|